Regional Weather Roundup
Issued by NWS

Home | Current Version | Previous Version | Graphics & Text | Print | Product List | Glossary On
Versions: 1 2 3 4 5 6 7 8 9 10 11 12 13 14 15 16 17 18 19 20 21 22 23 24 25 26 27 28 29 30 31 32 33 34 35 36 37 38 39 40 41 42 43 44 45 46 47 48 49 50
000
ASUS43 KLSX 010007
RWRMO

WEATHER SUMMARY FOR MISSOURI
NATIONAL WEATHER SERVICE SPRINGFIELD MO
700 PM CDT TUE JUN 30 2015

NOTE: "FAIR" INDICATES FEW OR NO CLOUDS BELOW 12,000 FEET WITH NO
       SIGNIFICANT WEATHER AND/OR OBSTRUCTIONS TO VISIBILITY.
       CURRENT SKY AND/OR WEATHER CONDITIONS ARE NOT AVAILABLE FOR
       CHILLICOTHE AND FARMINGTON.

MOZ001>031-035>038-043-044-053-054-010100-
...NORTHERN AND WESTERN MISSOURI...

CITY           SKY/WX    TMP DP  RH WIND       PRES   REMARKS
KANSAS CTY INT CLOUDY    84  65  52 SE8       29.88F
6HR MIN TEMP:  82; 6HR MAX TEMP:  86;

KANSAS C DTWN  CLOUDY    85  65  51 E7        29.86F
6HR MIN TEMP:  84; 6HR MAX TEMP:  90;

LEE`S SUMMIT   PTSUNNY   83  66  56 E5        29.89F
6HR MIN TEMP:  82; 6HR MAX TEMP:  88;

ST JOSEPH      CLOUDY    81  67  62 NE5       29.87F
6HR MIN TEMP:  81; 6HR MAX TEMP:  85;

CHILLICOTHE      N/A     78  73  84 CALM      29.90S
6HR MIN TEMP:  78; 6HR MAX TEMP:  82;

KIRKSVILLE     PTSUNNY   78  68  71 NW3       29.90S
6HR MIN TEMP:  78; 6HR MAX TEMP:  81;


$$
MOZ066>068-077>081-088>096-101>105-010100-
...SOUTHWEST MISSOURI...

CITY           SKY/WX    TMP DP  RH WIND       PRES   REMARKS
SPRINGFIELD    MOSUNNY   85  66  53 N3        29.93S
6HR MIN TEMP:  81; 6HR MAX TEMP:  88;

JOPLIN         SUNNY     88  71  57 S6        29.90F HX  94
6HR MIN TEMP:  85; 6HR MAX TEMP:  91;


$$
MOZ032>034-039>042-045>050-055>058-069>072-010100-
...CENTRAL MISSOURI...

CITY           SKY/WX    TMP DP  RH WIND       PRES   REMARKS
COLUMBIA       PTSUNNY   79  70  74 W7        29.89S
6HR MIN TEMP:  79; 6HR MAX TEMP:  84;

JEFFERSON CITY PTSUNNY   81  69  67 W5        29.87F
6HR MIN TEMP:  81; 6HR MAX TEMP:  86;

ROLLA          PTSUNNY   78  69  73 W6        29.90S
6HR MIN TEMP:  78; 6HR MAX TEMP:  82;

SEDALIA        CLOUDY    82  71  69 CALM      29.90F
6HR MIN TEMP:  82; 6HR MAX TEMP:  85;

WHITEMAN AFB   PTSUNNY   82  73  74 SW2       29.88F
WARRENSBURG    PTSUNNY   82  66  57 CALM      29.88F
OSAGE BEACH    PTSUNNY   81  70  69 W3        29.90F

$$
MOZ051-052-059>065-010100-
...EAST CENTRAL MISSOURI...

CITY           SKY/WX    TMP DP  RH WIND       PRES   REMARKS
ST LOUIS INTL  MOSUNNY   82  68  62 NW6       29.86S
6HR MIN TEMP:  82; 6HR MAX TEMP:  86;

SPIRIT OF STL  MOSUNNY   80  73  79 W6        29.85S
6HR MIN TEMP:  80; 6HR MAX TEMP:  84;

ST CHARLES     MOSUNNY   80  71  74 NW6       29.85R
6HR MIN TEMP:  80; 6HR MAX TEMP:  85;


$$
MOZ072>076-082>087-097>100-106>115-010100-
...SOUTH CENTRAL AND SOUTHEAST MISSOURI...

CITY           SKY/WX    TMP DP  RH WIND       PRES   REMARKS
CAPE GIRARDEAU MOSUNNY   82  70  66 W9        29.86S
6HR MIN TEMP:  82; 6HR MAX TEMP:  86;

FARMINGTON     MOSUNNY   79  70  73 SW5       29.93S
6HR MIN TEMP:  79; 6HR MAX TEMP:  82;

POPLAR BLUFF   SUNNY     84  70  62 SW3       29.87S
6HR MIN TEMP:  84; 6HR MAX TEMP:  87;

WEST PLAINS    MOSUNNY   81  67  62 W5        29.95S
6HR MIN TEMP:  81; 6HR MAX TEMP:  84;


$$



USA.gov is the U.S. government's official web portal to all federal, state and local government web resources and services.